Wetbulb
55.59 55.54 55.54 55.33 55.31 55.65 55.53 56.12 56.34 56.14 55.89 56.08 55.97 55.94 56.10 56.30 56.46 57.08 57.61 57.91 57.81 57.85 58.04 58.75 59.63 60.90 59.37 51.01 51.60 68.37 75.82 75.62 74.17 60.21 56.81 55.92 56.80 57.77 56.65 56.82 58.07 59.62 60.52 61.26 64.26 66.11 66.85
56.08 55.48 55.31 55.21 54.93 55.06 55.26 55.98 55.76 56.05 55.90 55.66 55.48 55.63 55.87 55.94 56.65 57.19 57.40 57.31 57.11 57.28 57.84 58.77 59.96 61.49 56.56 47.31 59.80 68.91 72.50 70.99 68.08 60.03 56.89 56.86 56.85 58.57 56.92 55.85 55.79 58.99 58.58 58.43 61.46 64.98 66.59
55.70 55.09 55.24 55.21 55.04 55.10 55.07 55.91 55.35 55.49 55.40 55.37 55.36 55.56 55.83 56.39 56.67 56.75 56.78 56.56 56.52 56.91 57.64 58.84 60.35 61.02 53.68 50.98 61.20 59.26 60.87 61.51 63.56 58.05 56.30 56.73 56.97 56.37 57.22 55.91 57.82 57.26 56.99 59.42 64.44 65.97 65.08
55.23 55.04 54.91 55.02 54.81 55.02 54.81 54.65 54.96 55.02 55.29 55.31 55.37 55.88 56.11 56.19 56.33 56.34 56.15 55.77 56.08 57.30 58.35 59.21 61.22 59.25 51.64 55.28 58.16 59.13 59.26 57.65 60.34 59.53 57.71 59.19 57.85 57.42 56.30 57.85 57.54 56.42 56.96 54.54 58.12 64.96 65.24
54.96 54.88 54.75 55.07 54.74 54.38 54.33 54.38 54.83 55.23 55.35 55.30 55.71 55.81 55.79 55.91 55.93 55.83 55.34 55.12 56.78 58.80 59.78 61.01 58.13 56.02 50.98 61.48 56.75 58.16 59.28 56.03 57.58 58.46 58.79 59.38 58.40 55.75 56.61 55.25 54.76 55.25 51.95 52.95 55.09 62.71 64.09
54.87 54.88 54.59 54.58 54.22 54.12 54.35 54.37 55.23 55.40 55.50 55.57 55.89 55.92 55.72 55.69 55.77 55.18 53.84 54.95 57.52 60.57 60.43 61.09 60.13 52.13 54.85 53.19 56.67 58.72 57.66 57.06 55.32 54.61 54.86 55.83 56.64 55.73 55.73 54.85 51.17 50.61 51.41 52.52 52.38 56.67 59.68
54.79 54.53 54.39 54.20 54.04 54.08 54.95 54.80 55.28 55.41 55.55 55.65 55.78 56.05 55.85 55.82 55.36 54.06 53.80 56.26 55.84 53.82 56.99 54.20 51.14 49.88 53.05 58.20 59.24 56.97 56.25 55.29 54.65 53.78 51.21 51.83 52.59 52.65 55.25 55.09 54.68 53.71 52.62 52.23 53.37 55.57 53.80
54.58 54.51 54.47 54.22 54.06 54.20 55.00 55.25 55.42 55.36 55.50 55.60 55.79 55.87 55.66 55.28 54.37 54.01 52.78 56.30 55.22 55.42 52.43 55.12 54.85 54.44 56.10 57.77 55.21 57.13 55.55 53.40 52.70 50.17 49.88 50.05 50.16 54.07 54.47 54.55 54.00 53.45 52.14 52.35 52.63 53.77 52.32
54.63 54.03 54.14 54.29 54.10 54.48 54.71 54.62 55.14 55.27 55.33 55.26 55.58 55.58 55.09 54.41 53.72 54.17 54.79 56.66 57.55 56.46 52.47 52.31 54.76 54.52 55.40 57.35 54.62 54.80 54.69 52.06 50.62 49.22 48.59 49.00 51.55 50.73 51.19 51.27 51.48 52.47 51.13 50.71 49.52 51.29 51.53
54.51 54.46 54.21 53.90 53.98 53.87 54.50 54.17 55.11 55.32 55.66 55.54 55.32 54.91 53.96 52.64 53.54 53.26 56.31 56.63 56.91 56.46 49.10 50.02 51.94 54.57 56.81 56.90 53.25 58.21 54.52 53.04 49.48 48.69 48.29 48.94 50.01 49.26 49.00 49.28 50.54 51.09 51.22 49.84 48.85 48.23 46.21
54.81 54.48 54.27 54.34 54.22 54.34 55.04 55.12 55.28 55.50 55.52 55.28 54.79 53.61 52.61 51.80 52.55 55.64 55.74 56.33 56.97 53.87 41.58 51.18 51.41 58.05 56.65 52.91 52.23 52.21 54.06 52.72 49.28 48.23 48.84 47.34 48.03 47.76 48.65 49.72 50.47 50.18 50.26 48.83 48.12 48.13 47.83
54.80 54.41 54.32 53.87 54.07 54.32 54.82 55.26 55.46 55.36 55.26 55.16 53.67 52.77 52.37 51.17 51.45 55.91 55.58 55.98 55.22 46.17 41.25 49.25 52.52 51.81 52.32 52.33 52.11 52.64 52.40 53.29 51.94 49.33 48.91 48.74 50.07 49.43 49.93 50.11 50.82 49.90 48.78 47.71 47.38 48.11 44.92
54.62 54.63 54.32 53.76 53.75 54.33 54.16 55.22 55.34 55.12 54.79 53.73 52.53 51.39 51.30 52.39 55.05 54.53 55.35 55.45 46.82 44.35 50.26 48.78 48.83 50.83 50.35 49.12 50.07 51.17 50.64 49.75 48.18 45.49 46.25 47.62 48.48 50.15 50.10 48.71 49.08 48.72 47.34 44.55 44.12 43.87 43.63
55.48 55.36 54.59 54.09 54.05 54.21 55.02 55.56 55.44 55.16 53.87 52.57 51.03 50.65 51.92 52.57 53.89 53.92 56.43 51.57 44.31 47.81 49.18 51.93 48.69 48.49 48.30 48.45 49.00 49.12 48.78 48.22 47.62 47.67 46.16 44.98 43.37 47.67 49.97 49.63 48.08 47.97 48.11 44.56 40.78 41.64 44.27
55.64 55.10 54.37 54.28 54.20 54.09 55.35 55.66 55.18 54.26 53.20 51.99 50.40 52.60 54.23 56.68 54.40 54.53 54.23 44.13 46.05 48.10 50.94 50.60 48.41 47.25 47.18 48.15 49.15 48.47 48.15 48.11 49.23 49.11 46.92 45.06 44.68 48.49 48.83 49.80 50.56 47.04 46.25 48.13 44.14 42.17 43.37
55.38 55.37 55.51 54.76 55.10 55.33 55.61 55.06 54.55 53.65 52.65 51.61 54.75 57.50 57.22 55.77 55.41 55.58 50.36 41.99 47.48 50.62 51.84 51.22 47.21 47.80 46.51 47.57 48.07 47.80 48.18 49.92 51.13 48.96 49.22 48.67 45.18 48.42 48.74 50.03 48.69 49.06 49.06 44.78 45.84 41.28 40.41
55.39 55.50 55.64 55.99 55.65 55.27 55.23 55.10 54.22 53.12 52.31 51.30 57.29 57.22 58.15 56.79 55.57 52.70 45.44 45.64 48.60 52.83 52.49 51.33 49.55 48.09 47.80 48.96 48.19 47.17 48.03 50.89 54.20 51.73 48.96 47.82 46.56 47.71 48.89 48.77 48.21 47.26 46.80 44.97 46.53 45.18 43.22
55.26 55.84 56.04 56.03 55.99 55.72 55.50 55.20 54.37 52.64 51.23 52.22 58.07 54.57 58.64 56.04 53.37 48.26 50.24 49.36 48.03 52.70 53.97 52.61 52.67 50.73 49.86 49.47 49.81 48.52 49.07 51.57 56.14 56.55 51.80 48.33 47.30 45.43 47.80 48.28 48.74 48.94 48.50 48.55 45.33 44.18 44.04
55.76 55.82 56.04 56.08 56.03 56.07 55.99 55.12 53.84 52.48 51.54 54.43 55.99 55.55 59.04 56.27 51.05 51.03 51.57 50.74 51.89 52.21 51.99 51.77 50.77 50.97 51.08 50.53 48.70 48.70 49.97 53.96 55.93 57.54 55.60 50.28 46.91 46.11 46.52 47.20 48.26 47.66 47.10 47.20 45.98 46.10 44.86
55.58 55.82 55.95 56.16 56.06 56.28 55.87 54.77 53.45 52.38 51.73 55.10 56.48 52.73 55.27 54.14 51.29 51.27 49.12 49.17 49.46 52.38 51.62 51.10 51.61 53.11 51.61 50.59 50.72 50.16 52.40 54.68 56.37 57.84 57.34 56.23 48.72 49.50 46.34 46.87 49.43 48.23 49.15 46.64 48.24 46.76 45.74
56.06 56.10 56.05 56.21 56.12 56.24 56.03 54.81 53.53 52.53 51.56 53.75 51.84 49.33 49.37 51.00 50.46 49.50 49.14 48.35 48.33 48.93 51.56 52.14 51.35 50.34 50.18 50.01 49.96 49.93 51.72 53.63 56.04 58.29 56.04 55.45 50.93 49.04 50.82 50.04 51.29 50.75 50.63 50.63 49.17 50.82 48.10
56.06 56.12 56.54 56.54 56.22 56.14 56.19 55.42 54.16 52.71 50.92 53.20 51.68 50.74 49.07 47.85 47.18 48.32 45.84 48.39 47.89 48.53 49.26 49.95 49.17 50.14 50.62 49.56 49.74 48.21 49.42 51.71 53.40 56.59 55.84 54.45 51.71 51.95 50.70 51.42 51.55 50.04 51.95 52.18 52.23 51.77 49.00
55.99 56.30 56.26 56.57 56.43 56.26 56.03 55.75 54.71 52.96 51.71 52.47 51.43 51.49 50.52 43.12 46.78 47.91 47.78 47.65 47.60 47.71 50.50 51.23 49.98 49.51 49.60 50.86 52.04 52.76 53.19 53.47 53.39 52.48 54.08 54.06 52.74 50.47 47.35 51.06 50.11 47.57 51.04 52.00 53.21 53.51 52.17
56.55 56.44 56.38 56.36 56.27 56.47 56.14 55.75 55.14 53.88 50.92 52.68 51.04 51.47 49.32 45.67 46.68 47.69 47.88 47.60 47.64 47.34 47.47 50.16 50.97 49.30 52.02 54.03 53.95 52.69 51.87 51.91 51.74 51.88 53.49 52.67 52.12 51.17 48.02 49.25 42.24 51.43 54.29 53.94 53.26 54.82 55.52
56.83 56.73 56.52 56.13 56.12 55.96 56.15 55.82 55.26 54.61 52.52 52.40 51.34 52.10 49.85 47.40 46.41 47.20 46.99 46.81 47.93 49.16 48.00 48.84 50.88 52.34 52.90 51.76 49.03 47.82 48.39 48.92 50.98 52.37 53.16 54.39 53.09 49.28 46.04 45.85 49.30 50.92 53.42 53.55 52.89 52.75 56.62
56.95 56.75 56.29 55.99 56.02 55.96 55.78 55.33 55.10 54.41 53.09 51.95 50.93 51.47 51.68 48.69 47.77 48.49 47.85 48.00 47.67 47.88 47.81 48.58 52.03 52.89 51.41 50.09 48.30 43.73 42.03 45.76 46.06 49.63 52.05 52.02 52.15 50.44 47.11 43.66 41.54 50.33 55.07 57.31 56.62 49.19 57.40
57.01 56.44 55.93 55.81 55.81 56.07 55.99 55.27 54.64 53.94 53.34 51.83 50.61 50.96 51.80 48.82 50.77 49.16 47.90 48.55 50.20 48.05 47.35 47.65 48.87 48.85 50.24 47.02 44.29 43.92 43.47 47.95 44.60 45.97 48.85 49.71 49.50 47.67 47.78 45.93 49.25 55.21 56.04 57.26 48.43 50.32 57.19
55.85 55.91 56.17 55.99 55.73 56.02 56.05 55.06 54.32 53.41 53.21 51.43 49.90 51.47 50.36 49.44 50.23 50.52 51.17 49.63 49.78 49.41 46.63 47.94 46.83 46.11 47.64 45.32 45.63 46.39 44.32 47.11 46.82 49.27 49.83 49.05 48.25 47.26 47.86 45.51 42.87 56.93 55.84 52.49 56.83 58.20 58.29
55.14 55.10 55.44 55.65 55.47 55.93 56.26 55.79 54.29 53.07 52.99 51.40 49.52 51.11 50.95 47.69 47.18 49.47 52.44 54.04 53.86 52.91 49.31 48.78 45.89 45.01 49.01 47.65 47.88 47.13 45.72 49.09 48.82 43.87 51.70 46.53 50.28 48.94 51.05 50.18 55.96 58.39 58.22 59.65 58.86 58.45 59.29
MSLP
1019.99 1019.80 1019.57 1019.37 1019.25 1019.00 1018.76 1018.58 1018.26 1017.95 1017.60 1017.25 1017.01 1016.68 1016.33 1015.97 1015.60 1015.06 1014.60 1014.25 1013.93 1013.63 1013.37 1013.07 1012.74 1012.39 1011.85 1010.82 1008.99 1008.20 1007.81 1008.32 1008.78 1008.54 1008.21 1008.18 1008.17 1008.02 1007.73 1007.76 1007.72 1007.41 1006.15 1005.66 1005.25 1005.66 1005.83
1019.88 1019.72 1019.53 1019.35 1019.19 1018.96 1018.70 1018.39 1018.02 1017.76 1017.47 1017.17 1016.85 1016.53 1016.20 1015.86 1015.44 1014.94 1014.43 1014.02 1013.86 1013.54 1013.24 1012.94 1012.69 1012.41 1011.64 1010.10 1008.61 1008.43 1008.26 1008.52 1008.37 1008.42 1008.13 1008.04 1007.77 1007.72 1007.44 1007.36 1007.44 1006.90 1006.10 1005.51 1005.17 1005.35 1005.83
1019.94 1019.71 1019.53 1019.25 1018.96 1018.72 1018.52 1018.33 1017.97 1017.52 1017.13 1016.91 1016.56 1016.19 1015.85 1015.58 1015.24 1014.92 1014.50 1013.94 1013.54 1013.33 1013.11 1012.90 1012.63 1012.33 1011.25 1009.21 1008.58 1008.77 1008.75 1008.57 1008.57 1008.29 1008.00 1008.04 1007.85 1007.80 1007.54 1006.94 1006.93 1006.59 1006.06 1005.47 1005.40 1005.62 1005.84
1019.89 1019.67 1019.44 1019.14 1018.83 1018.59 1018.29 1018.13 1017.79 1017.44 1017.09 1016.74 1016.46 1016.13 1015.76 1015.35 1014.96 1014.63 1014.24 1013.87 1013.32 1012.92 1012.71 1012.71 1012.57 1012.13 1009.98 1008.54 1008.67 1008.71 1008.60 1008.43 1008.56 1008.42 1008.25 1008.02 1008.00 1007.83 1007.58 1007.26 1006.82 1006.42 1006.24 1005.72 1005.77 1005.84 1006.14
1019.77 1019.55 1019.34 1019.12 1018.84 1018.57 1018.31 1018.01 1017.69 1017.41 1017.03 1016.67 1016.22 1015.73 1015.41 1015.07 1014.68 1014.32 1013.94 1013.50 1012.88 1012.44 1012.42 1012.50 1012.31 1011.46 1009.01 1008.15 1008.19 1007.91 1007.91 1007.76 1008.12 1008.35 1008.38 1008.21 1008.07 1007.86 1007.59 1007.05 1006.81 1006.88 1006.54 1006.36 1005.86 1005.99 1006.10
1019.73 1019.48 1019.34 1019.10 1018.75 1018.48 1018.13 1017.73 1017.39 1017.08 1016.82 1016.50 1016.05 1015.61 1015.15 1014.67 1014.32 1013.92 1013.46 1013.08 1012.71 1012.49 1012.46 1012.25 1011.80 1011.24 1008.64 1008.15 1007.75 1007.68 1007.80 1007.69 1007.60 1007.89 1008.16 1008.24 1008.04 1007.68 1007.54 1007.13 1006.70 1006.96 1006.84 1006.84 1006.53 1005.92 1005.92
1019.63 1019.47 1019.29 1019.02 1018.73 1018.34 1017.96 1017.57 1017.18 1016.79 1016.40 1016.08 1015.80 1015.45 1014.97 1014.42 1013.94 1013.64 1013.03 1012.74 1012.96 1012.60 1011.95 1010.86 1010.46 1009.76 1008.80 1008.12 1007.76 1007.37 1007.46 1007.37 1007.49 1007.63 1007.68 1008.12 1007.66 1007.18 1007.02 1007.18 1007.06 1007.01 1006.98 1006.72 1006.69 1006.07 1005.61
1019.65 1019.42 1019.18 1018.92 1018.65 1018.27 1017.91 1017.48 1017.07 1016.62 1016.18 1015.79 1015.40 1014.95 1014.54 1014.19 1013.78 1013.24 1013.03 1012.01 1012.05 1012.10 1011.18 1010.27 1009.89 1009.52 1008.98 1008.55 1007.83 1007.32 1007.37 1007.28 1007.49 1007.62 1008.07 1008.15 1007.42 1007.39 1007.46 1007.45 1007.11 1006.87 1006.76 1006.45 1006.38 1006.07 1006.02
1019.59 1019.30 1019.02 1018.80 1018.45 1018.12 1017.73 1017.31 1016.85 1016.46 1016.04 1015.60 1015.17 1014.76 1014.25 1013.60 1013.15 1012.83 1012.49 1011.90 1011.91 1011.78 1010.94 1009.70 1009.22 1008.80 1008.42 1008.34 1007.57 1007.16 1007.25 1007.20 1007.50 1007.77 1007.90 1007.72 1007.57 1007.63 1007.50 1007.17 1006.95 1006.74 1006.73 1006.63 1006.45 1006.11 1005.76
1019.55 1019.21 1018.93 1018.60 1018.28 1017.97 1017.61 1017.24 1016.80 1016.34 1015.82 1015.34 1014.90 1014.49 1014.11 1013.53 1013.27 1012.94 1012.17 1011.94 1011.78 1011.57 1010.15 1009.22 1008.54 1008.05 1008.19 1007.91 1007.43 1007.07 1007.03 1007.04 1007.62 1007.63 1008.01 1007.79 1007.67 1007.59 1007.41 1007.04 1006.99 1006.38 1006.65 1006.70 1006.52 1006.15 1005.60
1019.43 1019.15 1018.75 1018.40 1018.07 1017.77 1017.46 1017.06 1016.59 1016.06 1015.58 1015.08 1014.66 1014.35 1014.04 1013.83 1013.33 1012.48 1012.12 1011.70 1011.45 1011.14 1009.25 1008.26 1007.81 1007.69 1007.84 1007.60 1007.24 1007.08 1007.09 1006.98 1007.20 1007.61 1007.99 1007.49 1007.49 1007.42 1007.04 1006.70 1006.88 1006.39 1006.68 1006.81 1006.56 1006.23 1005.95
1019.40 1019.01 1018.63 1018.27 1017.89 1017.54 1017.15 1016.72 1016.25 1015.72 1015.23 1014.73 1014.36 1014.11 1013.89 1013.76 1013.51 1011.92 1011.75 1011.44 1011.07 1010.11 1008.51 1007.53 1007.38 1007.44 1007.31 1007.19 1006.93 1006.84 1006.85 1007.01 1007.50 1007.57 1007.71 1007.54 1007.57 1007.19 1006.69 1006.59 1006.61 1006.77 1006.73 1006.78 1006.82 1006.31 1005.49
1019.32 1018.91 1018.55 1018.19 1017.77 1017.30 1016.85 1016.35 1015.87 1015.33 1014.77 1014.30 1013.95 1013.86 1013.91 1013.49 1012.40 1011.87 1011.53 1010.84 1010.08 1008.88 1008.33 1007.68 1007.22 1007.02 1006.84 1006.78 1006.70 1006.56 1006.58 1006.89 1007.01 1007.37 1007.25 1007.32 1006.92 1006.71 1006.75 1006.65 1006.81 1006.73 1006.35 1005.92 1005.88 1005.80 1005.37
1019.26 1018.84 1018.43 1018.04 1017.62 1017.15 1016.61 1016.05 1015.49 1014.91 1014.38 1013.96 1013.57 1013.23 1013.22 1012.76 1012.26 1011.95 1010.82 1010.31 1009.35 1008.92 1008.06 1007.65 1007.29 1007.02 1006.82 1006.78 1006.73 1006.62 1006.64 1006.67 1007.27 1007.15 1007.19 1006.80 1006.32 1006.25 1006.20 1005.99 1005.90 1006.18 1005.92 1005.57 1005.35 1005.59 1005.35
1019.24 1018.80 1018.33 1017.90 1017.44 1016.96 1016.30 1015.67 1015.02 1014.42 1013.85 1013.42 1013.12 1012.93 1012.58 1012.01 1012.01 1012.00 1010.77 1009.88 1009.36 1008.82 1008.18 1007.63 1007.26 1006.89 1006.85 1006.83 1006.69 1006.70 1006.69 1006.50 1006.51 1006.73 1006.60 1006.53 1006.18 1005.95 1005.91 1005.76 1005.78 1006.16 1006.01 1005.81 1005.66 1006.62 1005.77
1019.24 1018.73 1018.33 1017.84 1017.31 1016.79 1016.14 1015.35 1014.66 1013.96 1013.41 1013.02 1012.58 1012.02 1012.08 1012.03 1011.99 1011.36 1010.52 1010.21 1009.63 1009.03 1008.32 1007.85 1007.21 1007.13 1006.83 1006.73 1006.57 1006.52 1006.59 1006.52 1006.50 1006.68 1006.80 1006.33 1006.06 1005.55 1005.49 1005.66 1006.02 1005.65 1005.79 1005.99 1005.82 1005.50 1005.11
1019.31 1018.87 1018.44 1017.87 1017.29 1016.75 1015.98 1015.21 1014.40 1013.56 1012.92 1012.62 1012.09 1011.58 1011.95 1011.97 1011.80 1010.92 1010.50 1010.29 1009.70 1008.76 1008.52 1007.90 1007.38 1007.15 1007.03 1006.81 1006.71 1006.58 1006.58 1006.61 1006.59 1006.74 1006.82 1006.62 1006.39 1005.66 1005.45 1004.98 1004.97 1005.77 1005.59 1005.97 1005.75 1005.60 1004.61
1019.43 1018.95 1018.47 1017.89 1017.37 1016.67 1015.94 1015.08 1014.10 1013.29 1012.44 1012.31 1011.71 1011.48 1011.83 1011.77 1011.45 1011.82 1010.98 1010.62 1010.03 1008.84 1008.36 1008.00 1007.68 1007.27 1007.03 1006.98 1006.74 1006.70 1006.56 1006.54 1006.76 1006.63 1006.67 1006.89 1006.36 1005.54 1004.95 1005.21 1005.28 1005.00 1004.84 1004.97 1004.94 1005.47 1005.39
1019.55 1019.09 1018.59 1018.02 1017.43 1016.74 1015.89 1015.01 1014.07 1013.15 1012.59 1012.19 1012.02 1012.05 1011.69 1011.44 1011.34 1011.38 1010.99 1010.42 1009.94 1009.08 1008.56 1008.11 1007.74 1007.55 1007.40 1007.22 1007.32 1007.12 1006.90 1006.81 1006.92 1006.76 1006.83 1006.89 1006.52 1005.60 1004.97 1005.43 1005.57 1005.08 1005.03 1005.03 1005.11 1004.98 1004.60
1019.66 1019.15 1018.57 1018.00 1017.44 1016.69 1015.85 1015.03 1014.11 1013.28 1012.77 1012.56 1012.25 1012.19 1011.96 1011.85 1012.13 1011.51 1011.08 1010.46 1009.84 1009.42 1009.00 1008.70 1008.26 1007.86 1007.76 1007.72 1007.82 1007.53 1007.20 1006.96 1007.00 1007.04 1007.18 1007.11 1006.68 1005.79 1005.41 1005.56 1005.81 1005.33 1005.23 1005.25 1004.55 1004.12 1004.13
1019.90 1019.41 1018.88 1018.31 1017.56 1016.79 1016.04 1015.09 1014.22 1013.40 1012.90 1012.82 1012.87 1013.20 1013.16 1012.49 1012.24 1011.85 1011.58 1011.12 1010.37 1009.72 1009.33 1009.03 1008.62 1008.66 1008.47 1008.14 1008.05 1007.84 1007.64 1007.29 1007.12 1007.31 1007.42 1007.22 1006.65 1006.77 1006.22 1006.14 1005.98 1005.58 1005.36 1005.26 1004.77 1004.16 1003.54
1020.07 1019.58 1019.05 1018.48 1017.85 1017.14 1016.40 1015.57 1014.44 1013.54 1012.87 1012.91 1013.74 1013.72 1013.73 1013.22 1012.84 1012.34 1011.98 1011.30 1010.90 1010.52 1010.12 1009.29 1009.18 1009.12 1008.90 1008.61 1008.50 1008.30 1008.21 1007.92 1007.49 1007.34 1007.32 1007.53 1007.14 1007.23 1006.60 1006.43 1006.37 1005.76 1005.38 1005.07 1004.61 1004.27 1003.79
1020.28 1019.84 1019.33 1018.79 1018.25 1017.64 1016.92 1016.16 1015.29 1014.05 1012.81 1013.87 1015.03 1014.73 1013.98 1013.81 1013.05 1012.57 1012.04 1011.76 1011.47 1011.36 1010.50 1010.15 1010.00 1009.77 1009.39 1009.14 1009.03 1008.79 1008.68 1008.32 1008.03 1008.22 1007.88 1007.87 1007.41 1007.37 1006.68 1006.65 1006.38 1005.31 1004.49 1004.25 1003.82 1003.50 1003.02
1020.40 1020.00 1019.53 1019.04 1018.52 1017.99 1017.42 1016.81 1016.21 1015.54 1015.02 1015.09 1015.69 1015.19 1014.23 1013.71 1013.38 1012.79 1012.40 1012.27 1011.89 1011.75 1011.37 1010.65 1010.52 1010.37 1010.00 1009.70 1009.11 1008.87 1008.51 1008.17 1008.16 1007.93 1008.16 1007.99 1007.98 1007.61 1006.92 1006.97 1005.74 1004.53 1004.55 1004.24 1003.65 1002.96 1002.99
1020.49 1020.13 1019.73 1019.33 1018.88 1018.37 1017.83 1017.31 1016.85 1016.32 1015.90 1015.66 1016.16 1015.62 1014.85 1013.93 1013.63 1012.94 1012.69 1012.54 1012.30 1012.13 1011.89 1011.24 1010.73 1010.52 1010.42 1009.93 1009.22 1008.59 1008.02 1007.81 1007.30 1007.71 1007.91 1008.04 1008.03 1007.58 1007.33 1006.39 1005.22 1004.78 1004.20 1003.90 1003.45 1002.90 1003.26
1020.43 1020.13 1019.80 1019.44 1019.03 1018.59 1018.15 1017.72 1017.35 1017.01 1016.65 1016.43 1016.60 1016.47 1015.46 1014.63 1013.46 1013.12 1012.88 1012.83 1012.45 1012.23 1011.94 1011.43 1011.18 1010.94 1010.51 1009.97 1009.47 1008.72 1007.97 1007.66 1007.56 1008.03 1008.53 1008.45 1008.51 1008.06 1007.74 1006.47 1004.94 1004.09 1003.56 1004.07 1003.91 1003.11 1003.59
1020.27 1020.02 1019.77 1019.49 1019.15 1018.79 1018.45 1018.12 1017.78 1017.49 1017.16 1016.97 1016.94 1016.93 1016.02 1015.06 1013.75 1013.62 1013.06 1012.70 1012.69 1012.58 1012.31 1012.13 1011.71 1011.06 1010.90 1010.09 1009.57 1008.92 1008.16 1008.03 1007.65 1007.52 1007.95 1008.06 1008.12 1007.59 1006.99 1006.27 1005.07 1004.40 1004.37 1004.59 1004.17 1003.91 1004.17
1020.18 1019.98 1019.72 1019.48 1019.22 1018.92 1018.63 1018.37 1018.06 1017.80 1017.48 1017.24 1017.24 1017.19 1016.62 1015.68 1014.25 1013.82 1013.33 1012.93 1012.90 1012.71 1012.36 1012.68 1012.40 1011.96 1011.40 1010.69 1009.94 1009.04 1008.69 1008.14 1007.85 1007.11 1007.00 1006.92 1007.07 1006.94 1006.96 1006.10 1004.88 1004.33 1004.80 1004.54 1004.10 1004.39 1004.61
1020.01 1019.88 1019.65 1019.41 1019.16 1018.90 1018.64 1018.40 1018.22 1017.98 1017.73 1017.56 1017.33 1017.45 1017.43 1016.64 1014.95 1014.53 1013.69 1013.25 1012.88 1012.68 1012.86 1013.04 1012.69 1012.33 1011.71 1011.19 1010.67 1010.04 1009.15 1008.73 1008.05 1007.12 1007.32 1006.95 1006.32 1006.04 1006.12 1004.95 1004.55 1004.50 1004.18 1004.46 1004.62 1004.84 1004.86
Wind_Speed
11 11 12 12 12 12 13 12 12 12 12 13 12 13 13 13 14 16 17 16 16 16 16 15 14 13 4 1 3 4 3 14 12 5 6 5 4 2 3 1 2 7 8 9 11 7 3
10 11 12 12 12 13 13 14 14 14 13 13 13 13 13 14 15 16 17 17 16 16 16 14 11 11 2 3 1 3 9 13 9 5 5 5 2 2 5 2 2 5 12 14 6 2 2
10 11 12 12 13 13 14 14 14 15 15 15 14 15 15 15 15 15 16 17 18 17 15 11 8 2 1 5 8 4 1 3 6 5 4 3 3 3 2 6 3 5 6 3 8 3 2
10 11 12 13 13 14 15 15 15 15 15 16 15 15 15 15 16 16 17 18 18 16 12 6 4 2 6 2 2 4 4 4 4 7 3 3 1 3 4 4 2 5 2 5 7 2 3
11 11 12 12 13 14 14 15 15 15 15 15 15 16 16 16 17 17 16 17 14 4 3 5 2 2 4 3 3 2 6 4 6 3 3 3 2 1 2 2 2 6 3 6 7 1 2
11 11 13 13 13 14 14 15 16 16 14 15 15 16 17 17 16 16 19 12 2 5 2 2 1 3 2 1 2 2 3 4 2 6 5 4 2 2 2 3 6 2 4 3 6 6 6
11 13 12 13 13 14 14 16 16 16 16 16 16 15 16 17 17 16 7 4 3 3 2 3 1 3 4 8 3 1 2 7 3 2 5 2 6 8 9 4 4 2 3 9 7 8 9
12 12 12 13 14 13 15 15 15 16 16 17 17 17 16 16 16 11 2 3 4 2 4 3 7 7 5 3 3 1 4 6 4 7 2 3 9 7 2 6 4 2 6 10 5 6 6
12 12 12 13 13 15 15 16 15 16 16 17 17 16 17 18 19 2 2 6 3 5 2 2 3 3 1 6 3 4 7 4 3 7 6 9 2 5 5 4 5 6 5 7 8 9 3
12 12 13 13 14 14 16 15 15 16 15 16 16 17 16 22 2 2 1 2 5 6 2 3 1 2 4 2 2 1 5 3 2 9 6 6 2 5 4 6 6 14 4 5 7 7 5
12 12 13 14 14 14 16 16 16 16 15 15 16 16 14 9 4 2 3 8 2 4 3 3 3 4 2 2 2 3 2 2 7 6 6 4 3 6 12 14 8 8 4 5 3 3 4
12 13 13 14 15 15 16 16 16 15 15 15 17 14 11 1 2 4 6 5 3 3 4 3 4 4 5 1 2 2 3 4 3 4 2 5 1 4 3 4 8 4 3 2 3 2 6
13 13 14 14 15 17 17 16 16 16 16 17 15 12 4 1 1 6 5 2 2 3 2 3 2 1 2 4 4 4 6 7 5 5 6 2 10 5 4 7 3 5 4 4 7 6 7
13 13 14 15 16 17 16 17 17 17 18 17 15 3 5 4 3 8 1 1 3 1 2 1 2 3 2 0 2 1 5 7 2 3 2 3 4 8 7 14 6 8 10 6 9 8 6
14 14 15 16 16 18 17 18 18 19 18 16 7 1 2 2 1 2 1 2 2 2 2 4 0 3 2 2 0 2 3 3 4 11 8 5 4 1 6 4 9 7 6 2 4 1 5
15 15 14 15 15 17 19 21 21 20 17 13 2 2 4 5 2 1 2 2 2 3 3 1 1 0 2 2 2 1 2 2 1 7 3 3 6 2 2 5 3 5 9 5 1 6 8
15 16 16 16 17 19 21 22 23 20 16 6 1 3 4 3 3 3 2 1 4 5 5 2 1 3 1 1 1 1 1 2 2 2 5 4 4 2 2 7 8 5 5 3 2 2 6
15 15 15 16 16 19 22 22 22 21 12 3 1 3 3 3 1 1 1 1 3 4 2 3 2 2 3 3 0 1 2 1 3 1 0 1 1 5 9 2 3 1 4 6 5 6 2
15 15 15 16 17 19 20 22 22 21 10 1 3 2 1 3 2 2 2 2 2 4 4 2 1 3 1 2 1 1 1 1 6 1 1 5 3 4 4 5 3 4 4 3 4 2 7
16 16 17 17 18 19 22 22 22 20 7 2 2 3 2 3 2 1 2 2 4 2 2 3 3 2 1 1 2 1 1 2 5 3 4 3 2 6 6 2 1 3 4 4 6 5 7
15 16 17 17 19 20 21 23 23 22 7 2 4 2 3 2 2 1 1 2 2 4 2 4 3 7 3 1 1 1 1 4 1 3 2 2 4 2 5 4 4 3 3 5 8 4 8
15 16 17 17 18 19 21 23 26 25 8 5 2 0 1 2 0 2 1 2 1 2 3 3 3 7 4 0 1 0 2 2 3 2 1 1 3 1 5 1 5 7 8 10 13 9 13
15 16 17 17 17 18 20 21 23 28 12 4 1 1 2 2 2 2 1 1 3 2 3 4 3 6 5 3 5 8 8 10 9 4 4 4 4 5 10 5 6 14 12 14 11 10 11
13 15 16 18 18 18 18 19 20 22 12 2 2 0 0 2 2 2 1 1 5 4 4 5 7 3 2 9 8 5 6 10 9 12 10 6 4 4 10 5 16 9 3 7 13 10 11
12 13 15 16 17 18 17 18 19 19 17 4 2 1 1 1 2 5 4 4 4 4 4 5 6 3 6 4 5 6 5 5 8 6 10 10 8 8 8 12 13 9 5 7 10 13 7
11 12 14 15 16 17 18 17 16 16 16 3 3 2 1 2 4 1 1 1 2 2 3 3 2 6 1 1 3 5 5 3 4 3 4 6 4 7 4 9 13 5 13 2 1 13 4
10 11 13 14 15 15 16 16 15 15 13 3 3 4 1 3 2 5 4 2 2 2 3 2 6 3 3 3 5 6 7 3 6 7 6 5 4 12 11 10 6 10 5 2 9 3 4
10 10 9 10 12 13 13 14 12 13 14 5 2 5 3 2 5 6 4 6 3 2 2 3 4 2 2 4 4 4 5 4 4 5 6 10 7 6 4 7 13 9 8 8 3 0 5
10 10 9 10 11 11 12 12 10 11 11 4 1 2 3 4 4 3 6 8 5 4 3 3 3 2 2 3 2 2 4 2 4 5 2 6 9 7 9 6 2 8 1 3 4 6 10
Wind_Direction
355 354 352 351 351 353 350 347 345 346 343 344 341 336 332 329 324 318 317 319 320 320 320 323 326 328 314 240 264 342 39 161 168 173 171 169 172 212 287 185 214 256 291 311 271 295 344
353 353 349 347 347 347 346 347 344 344 344 341 339 335 331 328 323 319 315 315 314 314 314 317 321 320 314 250 64 75 121 141 178 184 180 177 233 251 293 257 251 239 291 298 331 308 104
351 350 348 344 344 343 344 344 345 343 342 340 339 334 331 326 322 315 311 311 309 307 302 303 306 312 143 242 130 46 171 182 178 200 188 224 227 224 312 303 336 258 313 356 29 70 108
352 350 346 342 343 343 342 342 345 342 340 337 334 330 327 324 319 314 313 310 305 299 287 273 257 238 251 186 157 260 197 194 211 226 254 312 216 277 255 303 320 11 34 1 10 75 25
349 345 347 346 342 342 339 339 340 339 337 335 330 328 327 322 317 315 313 312 305 285 161 167 204 321 260 320 223 140 190 187 166 202 262 79 179 250 228 333 1 22 352 348 347 65 109
348 347 347 343 344 341 338 336 335 336 335 332 329 325 323 320 319 320 318 303 138 124 97 211 188 260 246 91 309 339 165 172 142 127 136 171 133 182 138 216 276 312 314 348 319 323 298
351 352 345 343 342 340 340 335 334 334 335 334 329 322 319 320 321 325 324 149 200 150 197 243 19 312 325 317 267 103 138 136 121 93 201 67 214 210 215 201 159 175 281 306 307 311 309
349 344 343 342 341 341 337 336 334 333 332 331 327 323 322 322 324 324 246 94 94 29 311 242 261 275 264 293 295 189 169 166 173 207 156 189 232 214 162 187 201 242 303 310 293 297 316
347 345 344 344 340 337 338 335 330 327 325 325 325 323 326 329 322 249 352 122 44 182 262 296 207 230 244 181 207 188 181 130 149 189 197 229 146 163 207 186 213 241 265 294 293 321 249
347 348 343 341 341 339 338 332 324 325 323 322 324 328 333 330 278 342 134 31 311 201 16 55 154 129 151 230 148 206 192 152 137 217 169 248 175 211 213 234 216 255 202 267 296 326 313
351 346 344 343 341 337 333 327 324 321 319 319 324 326 333 343 315 209 40 329 151 217 114 10 101 119 140 212 113 92 145 99 164 160 197 188 187 198 227 234 202 262 159 285 309 272 287
352 349 348 344 341 335 331 324 321 319 317 318 323 323 330 167 243 283 328 316 206 238 88 77 121 152 166 177 107 118 153 78 88 133 242 261 263 233 231 185 191 119 195 113 116 225 254
357 352 351 347 345 340 335 325 322 320 321 325 323 310 264 270 67 332 302 178 217 54 323 37 34 172 170 157 187 182 159 180 191 183 229 250 231 222 192 233 187 189 219 242 233 224 261
355 356 351 349 347 344 332 327 323 323 329 328 324 287 196 237 304 338 257 173 90 51 6 13 23 90 142 68 112 104 149 171 187 147 157 293 259 188 166 219 229 204 229 230 241 240 252
0 1 357 354 351 345 335 330 329 334 333 331 314 159 176 328 279 210 119 100 99 192 310 340 79 93 87 114 116 166 202 219 220 198 210 190 250 220 201 184 213 157 203 323 160 100 253
360 5 3 359 354 345 341 341 340 338 335 333 191 138 29 358 132 234 87 139 232 230 310 244 105 353 129 40 168 50 184 138 93 210 248 226 260 226 68 155 66 251 137 175 213 221 247
3 358 353 352 354 349 348 346 346 343 333 318 202 101 16 360 276 52 90 232 275 254 228 230 159 129 128 130 105 88 65 108 17 93 185 168 240 164 244 212 196 162 187 65 135 277 259
0 356 352 351 348 349 350 349 346 349 337 166 94 90 28 289 67 27 89 261 313 306 63 256 249 233 188 183 217 192 151 48 360 176 348 177 210 246 242 71 343 219 193 194 244 192 236
360 358 356 354 351 350 352 353 349 355 5 317 73 79 70 291 88 56 331 292 279 329 348 2 271 237 193 159 232 234 321 53 18 52 150 177 198 287 199 144 140 227 192 180 139 155 187
1 0 1 358 355 355 357 355 355 357 352 327 124 125 62 62 14 60 9 7 347 337 258 341 333 88 133 116 38 169 309 314 359 66 75 177 211 252 267 320 318 231 181 178 231 203 166
2 3 3 1 358 359 0 356 359 359 344 295 14 79 7 132 114 89 290 337 326 350 9 355 87 45 4 162 126 188 301 315 201 93 94 270 283 252 269 262 246 257 249 207 228 243 230
4 4 3 3 2 1 1 1 359 1 345 76 58 78 87 84 47 179 165 200 222 343 308 12 61 360 355 269 54 161 353 237 299 316 77 102 283 276 287 262 247 268 260 257 240 252 248
3 4 5 5 5 4 4 7 7 3 354 75 51 108 291 48 98 205 204 153 143 348 239 258 39 342 300 290 314 291 272 268 268 282 288 273 230 221 265 301 281 262 245 233 232 218 224
357 1 4 5 7 7 8 10 12 14 25 46 50 340 334 120 245 216 202 251 261 279 263 295 310 241 4 319 280 253 242 251 244 245 228 235 227 219 264 249 255 285 260 269 239 242 229
351 356 0 3 6 8 9 12 14 12 15 59 51 331 64 282 248 254 223 222 268 278 245 254 273 325 318 302 270 266 243 246 234 240 223 227 232 236 246 244 275 270 223 203 200 248 246
343 348 353 359 3 6 9 11 15 14 12 50 50 320 341 292 207 168 266 208 243 265 275 244 309 313 234 210 206 237 245 258 228 189 73 167 211 240 193 251 256 267 237 216 230 265 247
333 343 348 352 357 1 6 8 12 14 13 22 56 355 268 258 230 186 204 187 174 191 258 318 344 339 344 199 222 231 245 219 231 222 183 171 183 223 225 245 258 255 186 164 227 289 135
335 340 340 345 347 352 1 6 9 10 10 9 36 13 337 260 271 214 231 216 164 205 253 39 284 167 244 222 230 214 233 209 247 245 204 199 196 202 198 239 257 178 141 227 54 91 284
333 335 336 341 343 343 350 0 3 6 3 24 28 11 343 250 305 308 274 269 255 276 251 195 324 277 278 264 236 289 239 236 262 249 150 238 231 231 214 221 12 206 23 94 29 296 282